sat.trackr.live / text

‹ back to catalog

STARLINK-30162

NORAD 57446 · 2023-105S

PAYLOAD ACTIVE UNKNOWN

§ Identity

Operator
Country
US
Launch date
2023-07-24
Launch site
AFETR
Launch vehicle
Mass (kg)
RCS (m²)

Purposes: comms

External: N2YO · Heavens-Above · Gunter

§ Orbital elements

Epoch: 2026-09-20T22:39:44.538336Z

Period
94.27 min
Inclination
43.0015°
Eccentricity
0.0000837
Mean motion
15.27574420 rev/d
Perigee alt
482.5 km
Apogee alt
483.6 km
Semi-major
6,861.2 km
B*
-1.0748e-5
RAAN
226.1080°
Arg perigee
273.3009°
Mean anomaly
86.7746°
Rev number
17,557

§ Raw data

STARLINK-301621 57446U 23105S   26263.94426549 -.00000558  00000+0 -10748-4 0  99922 57446  43.0015 226.1080 0000837 273.3009  86.7746 15.27574420175572

JSON: /api/v1/satellites/57446 · /tle

For live sub-satellite position, see the globe view (requires WebGL).

§ Visibility from observer

Set your observer location to see the next 7 days of passes ≥ 10°. The values pass through the URL so the page stays shareable.

No JS? Fill the form by hand. The geolocation button needs JavaScript.